STARLINK-1912 (47178 NORAD) Tracking and Keplerian Element Data

This shows tracking and keplerian element data for the satellite.

Feedback or suggestion? Click here.




ElementValue
Catalog47178
NameSTARLINK-1912
Epoch Orbit175
Epoch Day101.91668981
Epoch Year2021
RAAN69.6922
Inclination53.052
Eccentricity0.0001401
Argument of Perigee69.2854
Mean Anonmoly243.7702
Mean Motion15.06397017
Decay Rate0.00014839
L11 47178U 20088BJ 21101.91668981 .00014839 00000-0 10131-2 0 9991
L22 47178 53.0520 69.6922 0001401 69.2854 243.7702 15.06397017 1755

Live tracking and technical data element details for STARLINK-1912 (NORAD 47178). STARLINK-1912 can be tracked NOW for your location showing map with azimuth and elevation plus other details from your city location.

Track the satellite on the map from your city or location and see movement details for azimuth, elevation, latitude, longitude, range, height, and movement on the map or in text.







IsCatalogInMostPopularTable: catalog: 47178, numindb: 50
Update: records affected: 1



GetName: 47178 STARLINK-1912

Hit Count: updated at: Tue, 13 Apr 2021 05:24:55 GMT